Dr. Bill's Marine Weather

Coastal Marine Forecast

       Alabama   Florida   Louisiana   Mississippi

Printer Friendly AL  FL  LA  MS

Data Buoys:   Western Gulf of Mexico    Eastern Gulf of Mexico
**********************************************************************
  Alabama
100 AM CDT SUN JUL 24 2016

ALZ051>064-240700-
SOUTHWEST ALABAMA
  
CITY           SKY/WX    TMP DP  RH WIND       PRES   REMARKS
MOBILE         CLEAR     78  75  90 SE3       29.99F                  
6HR MIN TEMP:  78; 6HR MAX TEMP:  86;                                

BROOKLEY FIELD PTCLDY    78  76  93 CALM      30.00F                  
6HR MIN TEMP:  78; 6HR MAX TEMP:  86;                                

EVERGREEN      PTCLDY    75  74  96 CALM      30.01F                  
6HR MIN TEMP:  75; 6HR MAX TEMP:  81;                                

**********************************************************************
  Florida
200 AM EDT SUN JUL 24 2016

FLZ001>010-012>015-112-114-115-240700-
PANHANDLE FLORIDA
  
CITY           SKY/WX    TMP DP  RH WIND       PRES   REMARKS
PENSACOLA      CLOUDY    80  74  81 CALM      29.99F                  
PENSACOLA NAS  MOCLDY    79  74  84 CALM      29.98F                  
MILTON NAS     MOCLDY    75  75 100 CALM      30.00                   
CRESTVIEW      PTCLDY    75  73  93 CALM      30.02S                  
DUKE FIELD     FAIR      75  73  92 CALM      30.00S                  
VALPARAISO     MOCLDY    79  74  83 N2        30.00S                  
MARY ESTHER    PTCLDY    77  74  92 N3        29.99S                  
PANAMA CITY    FAIR      79  76  90 CALM      29.99F                  
TYNDALL AFB    CLEAR     80  76  89 E3        30.00F                  
APALACHICOLA   MOCLDY    80  79  96 CALM      30.00F                  

STATION/POSITION SKY/WX   TEMP    WIND        PRES    WAVE   SWELL
                          AIR SEA DIR/SP/G            HT/PER HT/PER
                          (F)     (DEG/KT/KT) (MB)    (FT/S) (FT/S)
30.1N   87.6W              85 89  190/  4/  6 1015.7F   1
29.2N   88.2W              84 88  210/  4/  8 1015.5S
28.8N   86.0W              84 88  180/  2/  4 1016.1F   1/ 5
PANAMA CITY BEAC           85 88  140/  6/  7 1016.4F
TOWER C                    84     180/  8/  9 1016.7F
28.5N   84.5W              84 88  200/ 12/ 14 1016.0F   2/ 4

**********************************************************************
  Louisiana
100 AM CDT SUN JUL 24 2016

LAZ040-048-061>063-065-066-069-240700-
SOUTHEAST LOUISIANA
  
CITY           SKY/WX    TMP DP  RH WIND       PRES   REMARKS
N.O. AUDUBON   NOT AVBL                                               
N.O. INTL ARPT MOCLDY    84  76  76 CALM      29.96F                  
6HR MIN TEMP:  83; 6HR MAX TEMP:  92;                                

N.O. LAKEFRONT CLOUDY    84  76  76 SW6       29.97S                  
6HR MIN TEMP:  78; 6HR MAX TEMP:  89; 6HR PCP:  1.18;                

N.O. DOWNTOWN* FAIR      85  76  74 SW3       29.98S                  
6HR MIN TEMP:  84; 6HR MAX TEMP:  90;                                

RESERVE*       FAIR      77  75  93 CALM      29.96F FOG              
6HR MIN TEMP:  77; 6HR MAX TEMP:  79;                                

SLIDELL        MOCLDY    78  77  96 CALM      29.96F                  
6HR MIN TEMP:  78; 6HR MAX TEMP:  88;                                

BATON ROUGE    PTCLDY    78  74  87 CALM      29.96F                  
6HR MIN TEMP:  78; 6HR MAX TEMP:  83; 6HR PCP: TRACE;                

BOOTHVILLE     CLEAR     83  77  82 S6        29.98F                  
6HR MIN TEMP:  82; 6HR MAX TEMP:  85;                                

BELLE CHASSE   MOCLDY    78  77  96 CALM      29.96F                  
6HR MIN TEMP:  78; 6HR MAX TEMP:  87;                                

BOGALUSA*      FAIR      79  75  88 CALM      29.98F                  
6HR MIN TEMP:  79; 6HR MAX TEMP:  85;                                

GALLIANO*      PTCLDY    71  71  99 CALM      29.97F                  
6HR MIN TEMP:  71; 6HR MAX TEMP:  89;                                

NEW ROADS*     FAIR      78  75  91 CALM      29.96S                  
6HR MIN TEMP:  77; 6HR MAX TEMP:  84;                                

GONZALES*      FAIR      76  76 100 CALM      29.95F                  
6HR MIN TEMP:  75; 6HR MAX TEMP:  77;                                

HAMMOND*       PTCLDY    77  72  83 CALM      29.96S                  
HOUMA*         MOCLDY    79  77  95 CALM      29.97F                  
6HR MIN TEMP:  77; 6HR MAX TEMP:  85;                                

PORT FOURCHON* CLEAR     86  75  70 SW5       29.98S HX  95           

**********************************************************************
  Mississippi
100 AM CDT SUN JUL 24 2016

MSZ080>082-240700-
COASTAL MISSISSIPPI
  
CITY           SKY/WX    TMP DP  RH WIND       PRES   REMARKS
BILOXI         MOCLDY    82  79  89 CALM      29.96F HX  93           
6HR MIN TEMP:  82; 6HR MAX TEMP:  87;                                

PASCAGOULA     CLEAR     76  76 100 CALM      29.98F                  
6HR MIN TEMP:  76; 6HR MAX TEMP:  86;                                

GULFPORT       CLEAR     81  77  88 CALM      29.96F                  
6HR MIN TEMP:  81; 6HR MAX TEMP:  88;                                

About Us | Coastal Marine Forecast | Offshore Marine Forecast
Gulf Coast Tides | Hourly Weather Observations | Weather Radar
Sea Surface Temperatures | Solar/Lunar Data | Hurricane Advisories | Home
     
USA Logo Dr. Bill's Marine Weather
Last date changed: December 9, 2014 4:08 PM
www.gulfmarineweather.com/hourlyweatherobservations.shtml
Contact Us